This is the latest recevied weather packets stored in our database for station/object N4JTC. If no packets are shown the sender has not sent any weather packets the latest 10 day(s).
| Time | Temp. | Humidity | Pressure | Rain* | Wind** | Luminosity | Snow |
|---|---|---|---|---|---|---|---|
| 1777830903 | 25° C | 38% | 1020.3 hPa | 0 mm | - | 801 W/m² | - |
| 1777830603 | 24.44° C | 38% | 1020.5 hPa | 0 mm | - | 787 W/m² | - |
| 1777830302 | 25° C | 38% | 1020.6 hPa | 0 mm | - | 744 W/m² | - |
| 1777830003 | 24.44° C | 39% | 1020.5 hPa | 0 mm | - | 658 W/m² | - |
| 1777829703 | 24.44° C | 39% | 1020.6 hPa | 0 mm | - | 826 W/m² | - |
| 1777829102 | 24.44° C | 40% | 1021 hPa | 0 mm | - | 777 W/m² | - |
| 1777828803 | 25° C | 38% | 1020.9 hPa | 0 mm | - | 632 W/m² | - |
| 1777828503 | 24.44° C | 40% | 1020.9 hPa | 0 mm | - | 727 W/m² | - |
| 1777828203 | 25° C | 40% | 1020.8 hPa | 0 mm | - | 769 W/m² | - |
| 1777827903 | 25° C | 39% | 1020.9 hPa | 0 mm | - | 716 W/m² | - |
| 1777827303 | 24.44° C | 41% | 1021 hPa | 0 mm | - | 758 W/m² | - |
| 1777826702 | 24.44° C | 40% | 1021.4 hPa | 0 mm | - | 844 W/m² | - |
| 1777826403 | 24.44° C | 39% | 1021.3 hPa | 0 mm | - | 850 W/m² | - |
| 1777826103 | 24.44° C | 39% | 1021.3 hPa | 0 mm | - | 843 W/m² | - |
| 1777825803 | 24.44° C | 38% | 1021.4 hPa | 0 mm | - | 846 W/m² | - |
| 1777825502 | 24.44° C | 38% | 1021.5 hPa | 0 mm | - | 848 W/m² | - |
| 1777825203 | 23.89° C | 38% | 1021.9 hPa | 0 mm | - | 850 W/m² | - |
| 1777824903 | 24.44° C | 37% | 1021.8 hPa | 0 mm | - | 895 W/m² | - |
| 1777824303 | 23.89° C | 39% | 1021.9 hPa | 0 mm | - | 929 W/m² | - |
| 1777824003 | 23.89° C | 39% | 1021.8 hPa | 0 mm | - | 937 W/m² | - |
| 1777823703 | 23.89° C | 38% | 1021.9 hPa | 0 mm | - | 944 W/m² | - |
| 1777823403 | 23.33° C | 40% | 1021.6 hPa | 0 mm | - | 934 W/m² | - |
| 1777823103 | 23.33° C | 40% | 1022 hPa | 0 mm | - | 927 W/m² | - |
| 1777822803 | 23.33° C | 41% | 1021.8 hPa | 0 mm | - | 905 W/m² | - |
| 1777822503 | 23.33° C | 41% | 1021.9 hPa | 0 mm | - | 902 W/m² | - |
* Rain latest hour (hover to see other rain measurements)
** Current wind speed in m/s (hover to see current wind gust speed)